FW9813 Weather Reports


Display with metric or nautical units.
time (UTC)temp
F
wind
direction
speed
MPH
gust
MPH
rain 1hr
in
rain 24hr
in
rain mn
in
humidity
%
barometer
mb
20260905174601 75 325 1.0 3.0 0.00 0.00 0.00 79 1018.0
20260905173053 75 352 1.0 5.0 0.00 0.00 0.00 80 1018.2
20260905171547 74 116 0.0 3.0 0.00 0.00 0.00 81 1018.1
20260905170043 73 321 2.0 5.0 0.00 0.00 0.00 82 1018.1
20260905164548 72 19 1.0 6.0 0.00 0.00 0.00 84 1018.1
20260905163049 71 30 1.0 4.0 0.00 0.00 0.00 85 1018.1
20260905161558 70 333 1.0 4.0 0.00 0.00 0.00 87 1018.1
20260905160055 68 313 0.0 3.0 0.00 0.00 0.00 89 1018.6
20260905154559 67 348 1.0 4.0 0.00 0.00 0.00 91 1018.4
20260905153051 66 0 0.0 2.0 0.00 0.00 0.00 92 1018.8
20260905151601 66 0 0.0 3.0 0.00 0.00 0.00 93 1018.7
20260905150050 65 331 0.0 5.0 0.00 0.00 0.00 93 1017.9
20260905144548 65 352 2.0 5.0 0.00 0.00 0.00 94 1017.7
20260905143050 64 337 1.0 5.0 0.00 0.00 0.00 94 1017.9
20260905141544 64 348 1.0 4.0 0.00 0.00 0.00 94 1017.9
20260905140047 64 352 0.0 3.0 0.00 0.00 0.00 95 1018.1
20260905134546 64 352 2.0 4.0 0.00 0.00 0.00 95 1018.1
20260905133049 64 0 0.0 1.0 0.00 0.00 0.00 95 1018.1
20260905131555 63 352 0.0 2.0 0.00 0.00 0.00 95 1017.8
20260905130046 63 355 0.0 4.0 0.00 0.00 0.00 95 1017.3
20260905124602 63 348 2.0 4.0 0.00 0.00 0.00 94 1016.8
20260905123056 63 334 1.0 3.0 0.00 0.00 0.00 94 1016.5
20260905121547 63 14 0.0 4.0 0.00 0.00 0.00 94 1016.8
20260905120048 63 0 1.0 5.0 0.00 0.00 0.00 94 1016.8
20260905114547 63 344 1.0 4.0 0.00 0.00 0.00 94 1016.7
20260905113048 63 0 0.0 3.0 0.00 0.00 0.00 94 1016.7
20260905111816 63 335 1.0 3.0 0.00 0.00 0.00 94 1016.8
20260905104555 63 335 0.0 3.0 0.00 0.00 0.00 94 1016.5
20260905103048 62 0 1.0 3.0 0.00 0.00 0.00 94 1016.5
20260905101554 62 0 0.0 4.0 0.00 0.00 0.00 94 1016.7
20260905100051 63 0 0.0 3.0 0.00 0.00 0.00 93 1016.0
20260905094547 63 336 1.0 4.0 0.00 0.00 0.00 93 1015.4
20260905093047 63 63 1.0 5.0 0.00 0.00 0.00 93 1015.5
20260905091608 63 344 1.0 9.0 0.00 0.00 0.00 93 1015.6
20260905090050 63 34 1.0 6.0 0.00 0.00 0.00 93 1015.8
20260905084607 63 341 1.0 6.0 0.00 0.00 0.00 93 1016.1
20260905083047 63 350 2.0 5.0 0.00 0.00 0.00 93 1016.2
20260905081546 63 352 3.0 8.0 0.00 0.00 0.00 92 1016.4
20260905080052 64 352 1.0 5.0 0.00 0.00 0.00 93 1016.4
20260905074556 64 344 2.0 6.0 0.00 0.00 0.00 92 1016.3
20260905073048 64 26 1.0 4.0 0.00 0.00 0.00 92 1016.3
20260905071546 64 342 1.0 6.0 0.00 0.00 0.00 92 1016.2
20260905070108 64 351 2.0 5.0 0.00 0.00 0.00 91 1016.3
20260905064549 64 347 2.0 5.0 0.00 0.00 0.00 91 1016.1
20260905063048 64 352 0.0 4.0 0.00 0.00 0.00 90 1016.1
20260905061543 64 360 1.0 4.0 0.00 0.00 0.00 90 1016.2
20260905060054 64 343 1.0 5.0 0.00 0.00 0.00 90 1016.3
20260905054558 64 323 2.0 5.0 0.00 0.00 0.00 90 1016.4
20260905053049 64 322 0.0 3.0 0.00 0.00 0.00 90 1016.3
20260905051557 64 11 1.0 6.0 0.00 0.00 0.00 90 1016.2
20260905050054 65 352 3.0 10.0 0.00 0.00 0.00 89 1016.1
20260905044549 65 345 1.0 6.0 0.00 0.00 0.00 89 1015.9
20260905043044 65 333 2.0 5.0 0.00 0.00 0.00 88 1016.0
20260905041602 65 352 2.0 4.0 0.00 0.00 0.00 87 1015.9
20260905040056 66 346 1.0 3.0 0.00 0.00 0.00 86 1015.9
20260905034549 66 0 1.0 4.0 0.00 0.00 0.00 86 1015.9
20260905033052 67 360 1.0 8.0 0.00 0.00 0.00 85 1015.9
20260905031549 67 352 2.0 5.0 0.00 0.00 0.00 84 1015.7
20260905030052 68 51 2.0 10.0 0.00 0.00 0.00 83 1015.6
20260905024548 69 0 1.0 5.0 0.00 0.00 0.00 82 1015.6
20260905023047 70 348 0.0 6.0 0.00 0.00 0.00 81 1015.4
20260905021548 70 343 2.0 9.0 0.00 0.00 0.00 80 1015.3
20260905020055 72 315 2.0 8.0 0.00 0.00 0.00 78 1015.1
20260905014549 73 17 1.0 7.0 0.00 0.00 0.00 77 1015.0
20260905013047 74 345 2.0 5.0 0.00 0.00 0.00 76 1014.8
20260905011548 75 11 2.0 7.0 0.00 0.00 0.00 74 1014.5
20260905004551 78 315 1.0 5.0 0.00 0.00 0.00 72 1014.3
20260905003049 79 343 1.0 5.0 0.00 0.00 0.00 70 1014.1
20260905001544 79 348 1.0 3.0 0.00 0.00 0.00 69 1014.1
20260905000054 80 346 1.0 9.0 0.00 0.00 0.00 68 1013.9
20260904234551 81 344 1.0 4.0 0.00 0.00 0.00 68 1013.8
20260904233047 81 340 2.0 6.0 0.00 0.00 0.00 67 1013.7
20260904231559 82 346 1.0 8.0 0.00 0.00 0.00 66 1013.6
20260904230107 82 347 1.0 5.0 0.00 0.00 0.00 65 1013.6
20260904224604 83 340 3.0 9.0 0.00 0.00 0.00 65 1013.5
20260904223048 83 9 2.0 8.0 0.00 0.00 0.00 64 1013.3
20260904221548 83 325 3.0 6.0 0.00 0.00 0.00 64 1013.3
20260904220100 84 352 2.0 5.0 0.00 0.00 0.00 63 1013.0
20260904214555 84 345 1.0 6.0 0.00 0.00 0.00 64 1012.9
20260904213050 84 298 3.0 8.0 0.00 0.00 0.00 63 1012.9
20260904211600 84 0 2.0 8.0 0.00 0.00 0.00 64 1012.9
20260904210053 84 310 1.0 5.0 0.00 0.00 0.00 64 1013.0
20260904204557 83 20 2.0 6.0 0.00 0.00 0.00 65 1013.0
20260904203049 83 38 0.0 5.0 0.00 0.00 0.00 66 1013.1
20260904201550 82 350 3.0 6.0 0.00 0.00 0.00 66 1013.2
20260904200047 81 311 1.0 6.0 0.00 0.00 0.00 69 1013.3
20260904194558 80 346 2.0 8.0 0.00 0.00 0.00 68 1013.4
20260904193055 79 336 2.0 6.0 0.00 0.00 0.00 70 1013.4
20260904191546 78 347 2.0 8.0 0.00 0.00 0.00 75 1013.4
20260904190048 77 306 2.0 5.0 0.00 0.00 0.00 76 1013.5
20260904184548 77 337 1.0 5.0 0.00 0.00 0.00 76 1013.6
20260904183048 77 331 1.0 4.0 0.00 0.00 0.00 77 1013.6
20260904181548 76 351 1.0 7.0 0.00 0.00 0.00 78 1013.6
20260904180051 75 328 1.0 8.0 0.00 0.00 0.00 80 1013.6